RH
95 97 99 100 99 96 93 93 94 97 101 104 102 99 97 97 98 100 102 102 101 102 103 103 102 100 98 95 92 89 87 85 82 80 78 74 71 65 59 54 50 47 46 44 43 42 40 40 39 37 37 36 35 34 33 33 34 36 42 56 75 90 98 99 100 102 100 93 89 82 71 65 68 72 74 83 92 91 88 89 79 64 53 45 43
83 84 87 91 96 98 98 98 99 98 99 101 103 103 103 102 100 98 99 99 100 100 101 103 104 104 103 101 99 96 92 89 85 82 80 78 77 77 74 69 62 56 52 48 46 45 43 42 41 39 38 38 37 35 34 32 31 32 32 36 47 62 81 95 97 100 102 100 97 92 78 66 68 76 75 78 88 88 89 98 99 90 72 54 50
84 85 82 81 82 84 88 92 95 97 98 98 100 101 103 104 103 100 99 99 100 101 102 104 105 105 104 102 100 97 93 91 90 87 85 84 81 80 79 79 77 73 67 61 55 50 48 45 43 42 40 39 39 37 36 34 31 31 30 31 33 38 55 76 89 96 99 99 99 100 95 80 72 75 74 74 82 84 83 89 98 104 95 74 62
84 91 92 88 83 81 79 79 81 83 86 88 89 92 95 99 101 100 99 99 99 99 101 104 105 105 105 102 98 94 89 85 84 83 83 84 84 83 82 82 82 81 79 75 70 63 58 54 50 47 43 40 39 38 37 37 34 32 30 29 30 30 34 48 67 82 89 91 93 96 101 96 89 87 79 73 78 82 80 77 80 93 102 96 86
80 84 85 82 79 77 76 75 75 74 74 75 75 76 79 82 86 89 90 91 93 94 95 97 99 100 101 100 97 94 91 87 82 80 78 77 78 80 81 81 80 81 81 80 78 75 71 67 63 58 53 48 44 41 38 37 36 35 33 31 29 29 28 30 41 58 72 79 83 89 95 97 98 99 95 87 83 81 79 78 77 81 91 99 101
79 78 78 75 71 69 70 71 72 72 72 72 71 70 70 71 71 72 74 76 77 79 81 83 86 89 90 91 92 91 90 89 86 84 81 78 76 74 73 74 73 73 74 75 76 76 75 74 72 69 65 60 55 50 45 41 38 36 35 34 31 29 29 27 29 38 50 59 66 74 84 91 93 95 99 100 96 91 85 83 86 88 90 94 97
65 70 72 71 70 69 69 68 66 66 68 70 70 70 70 72 72 69 68 68 68 67 68 69 69 71 73 74 76 78 78 79 79 80 80 79 77 75 72 70 69 68 67 67 67 68 69 71 72 71 69 65 63 60 56 52 47 42 38 36 34 32 30 29 27 29 34 40 46 52 62 76 85 87 92 97 100 100 96 92 93 95 96 94 90
45 52 57 59 62 64 66 66 65 65 65 66 68 69 70 71 71 72 72 71 71 70 68 68 66 64 64 63 62 63 64 64 65 67 68 70 70 70 69 68 67 66 65 64 62 60 60 60 62 65 66 64 62 60 59 57 55 52 48 43 39 36 33 31 29 27 28 30 33 36 41 53 66 75 81 87 91 96 100 99 97 97 96 96 96
33 37 40 43 45 46 47 50 54 59 63 67 69 71 74 76 74 74 76 75 75 75 73 72 71 69 67 65 62 60 58 57 56 56 56 57 58 59 59 60 61 61 60 60 59 58 57 55 55 56 57 59 59 58 57 56 54 54 54 52 48 44 40 36 32 30 28 27 28 29 30 33 41 52 62 70 77 83 89 96 100 101 98 95 99
31 31 32 35 42 52 61 61 56 56 56 58 62 65 67 73 76 77 79 79 76 77 76 74 72 71 69 67 65 63 61 58 56 55 53 52 52 51 51 50 51 51 51 51 52 52 53 53 53 52 52 53 53 54 54 53 52 51 50 51 51 51 49 45 40 36 31 29 27 27 28 28 28 32 39 48 58 65 72 79 88 98 100 96 97
35 33 32 32 38 58 85 91 83 83 83 77 75 78 72 66 65 65 68 73 74 75 76 75 73 71 68 66 64 62 60 58 56 54 53 52 52 51 51 50 48 47 46 45 45 45 45 46 48 49 50 51 50 51 50 50 50 49 47 47 46 47 48 49 48 44 39 35 31 28 28 28 28 27 28 31 37 45 53 60 66 77 87 95 101
39 36 35 35 32 40 66 90 91 88 98 102 98 97 94 80 66 57 50 52 58 63 66 67 68 68 67 66 64 62 59 55 52 50 48 48 49 50 51 51 51 50 48 47 45 44 43 42 41 42 44 46 47 48 49 49 48 46 45 44 43 42 42 44 46 47 45 41 38 34 30 29 29 29 27 26 27 30 37 44 49 56 64 75 88
41 40 37 38 38 33 44 80 99 86 84 101 104 99 100 95 81 68 54 43 41 45 49 53 56 58 60 61 61 60 58 54 50 47 45 44 44 44 45 46 47 48 48 48 47 47 47 45 43 41 39 39 40 41 43 45 46 46 44 42 41 40 39 40 41 43 44 43 42 41 38 34 31 30 28 27 25 24 26 30 34 40 46 52 61
40 41 40 38 43 40 34 58 97 101 87 93 103 100 98 98 91 80 68 54 41 35 36 40 43 45 47 49 50 51 50 49 47 45 43 43 41 40 39 39 40 41 42 42 43 44 45 45 45 44 42 39 37 36 36 37 40 42 43 42 40 38 36 36 37 39 40 41 42 43 43 41 37 35 32 29 27 26 24 24 25 27 31 36 41
43 43 44 40 40 45 40 41 71 101 99 93 100 103 98 94 88 78 71 65 53 38 30 30 33 34 35 37 38 39 40 40 40 40 39 38 37 36 36 35 36 36 37 37 38 38 38 39 39 40 40 39 38 36 33 33 33 34 37 39 39 38 36 34 34 35 36 38 40 42 44 43 42 40 38 33 29 27 26 24 24 23 23 25 28
45 45 48 48 42 43 45 39 49 81 102 101 100 102 99 91 79 67 62 58 51 41 32 27 27 26 27 29 30 31 32 33 33 34 33 33 32 31 31 31 32 33 34 35 35 35 35 34 33 33 32 32 33 32 31 29 29 29 30 32 34 36 36 35 33 32 33 34 36 39 42 43 42 42 41 39 35 32 29 26 25 24 24 23 22
45 45 45 48 49 46 47 44 42 57 84 100 103 102 101 95 85 75 63 50 44 43 38 31 27 25 24 24 24 24 26 26 27 27 28 28 28 28 29 29 30 31 32 32 31 31 31 30 29 28 27 27 26 26 25 25 24 25 26 27 29 30 32 34 34 33 32 32 33 34 37 39 40 40 40 40 39 37 34 31 29 26 24 24 24
47 47 43 42 45 46 47 50 48 46 55 73 89 98 101 101 96 85 66 48 43 45 42 36 32 28 25 24 23 22 22 21 22 22 22 22 22 23 24 25 25 26 26 26 26 26 26 25 24 23 22 23 23 22 22 21 20 21 21 22 23 26 28 30 32 32 31 31 31 32 33 35 37 38 38 38 38 38 36 35 34 31 27 25 25
45 44 43 41 41 42 44 48 52 51 48 50 57 67 74 79 78 69 55 45 45 46 43 39 35 30 26 24 23 22 22 22 21 21 21 22 22 23 23 22 22 22 21 21 21 21 21 20 19 18 18 18 19 19 19 19 19 19 19 18 19 21 24 26 27 28 29 29 29 30 31 33 34 36 36 36 35 35 35 36 36 36 34 30 28
41 40 41 41 41 42 43 44 47 52 55 52 49 47 47 49 50 49 46 45 45 43 41 38 34 29 25 24 23 23 24 24 25 26 27 27 26 25 24 24 23 22 21 20 18 17 16 15 14 14 14 14 15 16 16 17 17 18 18 19 19 19 20 20 21 23 25 26 27 27 28 29 31 33 35 35 34 33 33 34 36 37 37 35 32
37 38 39 40 42 44 46 45 44 45 47 47 46 43 40 40 42 44 46 47 46 44 42 39 35 30 27 25 24 24 25 26 29 29 29 29 28 27 26 25 25 23 21 18 16 14 13 12 12 12 12 12 12 13 13 14 15 16 17 17 18 19 19 17 17 17 19 21 23 24 25 26 27 29 31 33 33 32 31 32 33 36 37 37 36
33 34 36 38 40 43 44 43 39 36 34 34 35 36 37 40 44 47 49 50 50 47 44 39 34 29 26 25 25 24 26 28 29 29 29 29 29 29 28 26 23 20 18 16 14 14 14 13 13 13 13 12 12 11 11 12 12 13 14 15 15 17 17 17 16 15 15 16 17 20 22 24 25 25 27 29 30 31 31 30 31 33 36 37 37
30 31 32 34 36 37 38 36 33 30 29 29 31 33 36 42 46 50 52 52 50 47 42 36 31 27 26 26 26 26 28 29 29 29 30 31 31 29 26 23 20 17 15 16 16 17 16 16 16 15 15 14 13 12 11 10 11 11 11 12 13 14 14 15 16 15 14 14 14 15 17 19 22 23 24 26 27 28 28 28 28 30 32 35 36
29 28 27 27 28 28 28 29 29 29 29 28 29 32 37 42 46 50 51 49 47 42 36 32 29 28 27 27 28 29 29 31 33 33 33 31 29 25 22 19 17 16 16 17 18 17 17 17 16 15 14 13 12 12 11 11 11 11 11 10 10 11 12 13 14 14 14 14 13 14 15 15 17 19 21 23 24 25 26 26 26 26 28 30 33
24 22 20 20 21 22 23 24 25 25 26 27 30 34 37 40 43 46 46 44 41 37 33 30 29 29 29 30 31 31 32 35 38 37 34 29 24 20 18 16 16 17 17 17 17 17 17 17 16 14 13 12 12 12 12 12 11 11 11 10 10 10 10 11 12 12 13 13 14 14 14 14 15 15 16 18 20 22 24 24 24 24 24 26 28
17 17 16 16 17 17 18 20 21 22 23 26 31 36 38 39 41 42 43 41 38 35 32 30 30 30 31 32 33 35 39 43 43 39 32 25 20 17 16 16 17 18 18 18 18 17 17 16 15 14 13 13 12 12 12 12 11 11 10 10 10 10 9 9 10 11 11 12 13 13 13 14 14 14 14 14 15 17 20 22 22 22 23 23 25
16 17 17 16 16 16 17 18 20 22 23 28 34 38 39 40 40 40 39 38 36 34 32 30 31 32 33 34 36 41 46 48 45 37 28 21 18 17 16 17 18 19 19 18 18 17 16 15 14 14 14 13 12 12 11 11 10 10 10 10 10 10 10 9 9 10 10 11 12 12 13 13 13 13 14 14 14 14 15 17 18 19 20 22 23
18 19 20 19 17 18 19 21 24 27 28 30 36 40 40 38 37 37 37 35 34 32 31 31 32 33 35 38 43 48 51 48 39 30 23 19 18 18 18 19 20 20 19 18 17 16 15 15 14 14 14 13 12 11 11 10 10 10 10 10 10 10 10 10 9 9 9 10 10 11 11 11 12 12 13 13 13 14 14 14 15 16 17 19 21
20 22 23 22 20 20 23 25 28 32 32 33 38 41 39 35 33 33 33 32 32 32 31 31 33 36 40 45 50 52 50 41 31 24 22 20 19 19 20 20 20 19 17 16 15 15 14 15 15 14 13 13 13 12 11 11 10 10 10 10 11 10 10 10 10 10 9 9 9 9 9 10 11 11 12 12 12 13 13 14 14 14 14 15 18
24 24 24 23 23 25 28 30 31 35 38 40 41 40 36 33 32 32 33 33 32 32 32 33 37 42 47 51 52 48 41 32 27 24 22 20 18 19 20 20 20 19 17 15 15 16 15 15 15 15 14 13 13 12 12 12 11 11 11 10 10 10 10 10 10 10 9 9 9 9 8 8 9 9 10 11 12 12 13 13 13 13 13 13 15
29 29 30 34 38 40 42 43 44 47 51 50 47 43 40 38 36 36 36 35 34 34 36 39 43 48 51 51 46 37 30 27 27 25 22 19 18 18 19 20 20 19 17 17 17 16 16 15 15 14 14 14 13 13 13 12 12 11 11 11 11 11 11 11 10 10 9 9 9 9 8 8 8 8 8 9 10 11 11 12 12 12 13 14 14
38 42 48 56 62 63 61 61 63 65 65 61 54 49 48 46 45 43 40 39 39 41 43 45 46 48 47 43 36 29 26 26 25 23 21 19 18 19 19 20 20 19 18 18 17 15 15 15 15 15 15 15 15 14 14 14 13 12 12 11 11 11 11 11 11 10 10 9 9 9 9 8 8 8 8 8 9 9 10 11 12 12 13 14 15
50 62 68 73 76 73 68 68 70 71 69 63 57 54 54 54 52 49 46 45 45 44 43 43 43 42 38 33 28 26 26 26 24 21 19 18 19 21 21 20 19 18 18 18 17 16 17 17 17 17 18 18 18 18 16 15 14 14 14 14 13 13 13 12 11 11 10 10 9 9 9 8 8 8 7 8 8 9 9 9 10 11 13 14 14
62 70 72 71 71 70 69 71 73 72 69 64 59 56 55 53 49 47 46 45 42 39 38 40 40 36 31 26 25 25 26 26 24 21 18 18 20 22 22 20 18 17 16 17 19 21 22 22 21 21 22 22 23 21 19 18 17 16 17 16 16 15 14 13 12 11 11 11 10 9 9 9 8 8 8 8 8 8 8 9 10 11 12 13 14
61 64 67 69 70 69 68 70 70 68 63 58 55 54 53 51 49 48 46 42 37 34 34 35 34 31 27 24 25 26 26 26 23 21 19 20 21 22 20 19 19 19 19 21 24 26 28 28 27 26 25 24 24 24 21 20 19 18 18 18 18 18 16 15 14 14 13 13 12 11 10 9 8 8 8 8 8 8 8 9 10 10 11 12 13
60 64 72 77 76 71 69 69 67 62 56 53 54 57 57 57 55 52 47 40 34 31 30 29 27 26 25 25 26 27 26 24 23 22 22 21 21 20 20 20 21 24 26 27 28 29 29 30 29 27 25 23 23 22 21 20 19 19 19 19 18 18 17 16 17 17 16 16 14 12 11 10 9 9 8 8 8 8 8 9 9 10 11 12 12
72 76 79 79 76 73 72 71 68 62 59 60 63 66 65 63 59 53 45 36 30 27 27 26 24 23 24 27 29 28 26 24 23 24 23 21 20 20 22 24 26 29 31 32 31 30 30 30 29 27 25 23 21 19 19 19 20 20 20 19 19 18 17 17 17 18 17 17 16 14 12 11 10 9 9 9 8 8 8 8 9 9 11 11 12
86 84 81 78 77 76 75 74 71 69 70 71 71 69 67 62 56 48 40 32 28 26 25 24 23 23 25 29 31 29 26 24 24 25 24 21 20 22 27 31 33 35 36 35 34 33 31 29 26 24 21 20 18 18 19 19 20 20 20 20 20 19 19 18 18 17 17 17 16 15 14 13 11 10 9 9 9 9 9 9 9 9 10 11 12
89 86 84 82 81 81 79 78 79 79 78 75 71 68 65 59 51 44 37 31 27 25 23 23 24 26 28 30 31 30 28 26 24 24 26 27 26 26 30 36 39 41 41 38 34 30 27 23 21 19 18 17 16 17 18 18 19 19 20 21 21 21 20 19 18 17 17 17 17 17 16 15 13 11 10 10 10 10 10 10 9 10 10 10 11
94 96 93 89 88 88 87 87 85 81 77 73 71 67 63 56 50 43 35 30 27 24 22 24 27 30 31 32 32 31 29 27 24 25 29 35 35 34 36 39 41 41 40 36 31 25 21 19 17 17 16 16 16 16 17 17 18 19 20 21 22 22 22 20 19 18 18 17 17 17 17 16 15 13 12 11 10 10 11 10 10 10 10 10 10
101 103 98 96 100 103 100 94 87 80 75 72 69 65 60 55 49 40 33 29 27 24 24 27 31 33 34 34 33 32 31 28 25 27 35 41 44 44 45 45 44 41 37 31 25 22 19 17 16 16 16 16 16 16 17 17 18 19 20 21 22 23 23 22 20 19 18 18 17 17 17 17 17 15 13 12 11 11 11 11 10 11 11 11 11
106 105 104 108 113 113 107 98 89 83 78 72 66 62 59 55 47 38 32 29 28 26 28 31 34 35 36 36 34 33 33 29 27 33 42 49 52 53 52 50 46 42 34 27 23 21 19 17 17 17 17 17 17 17 18 19 20 21 22 22 22 23 25 24 21 20 19 18 17 17 18 18 18 16 15 13 12 12 11 12 12 13 13 13 13
110 110 111 113 112 109 104 97 91 87 80 69 61 60 60 54 46 37 32 31 30 30 32 35 36 37 39 38 36 35 35 33 34 39 47 53 58 61 57 51 46 40 32 26 24 21 19 18 19 19 19 19 19 19 20 22 23 24 24 23 23 24 25 25 24 21 20 19 19 18 19 20 19 18 16 15 14 13 12 12 12 13 14 15 15
108 107 106 105 104 102 99 93 88 84 75 65 60 60 58 52 45 38 34 33 34 34 35 37 39 40 41 40 39 39 39 40 43 46 49 55 63 65 58 49 42 36 29 25 25 22 19 19 21 22 23 23 22 22 24 25 25 26 26 25 25 24 25 25 25 23 22 21 20 20 21 21 21 20 18 16 15 15 15 14 14 14 15 15 15
103 96 93 94 95 94 90 85 82 77 70 64 64 63 58 52 45 38 35 36 38 38 38 38 40 42 43 43 44 43 44 49 54 54 53 58 65 64 55 46 39 32 26 25 27 25 22 22 26 28 28 26 25 25 27 27 27 28 29 30 30 28 26 24 25 25 24 23 22 21 22 23 23 22 20 18 17 16 16 16 16 16 16 16 16
93 84 83 86 86 83 80 79 77 72 68 66 66 64 59 53 44 37 36 39 41 42 40 38 40 43 45 47 50 51 53 60 63 60 59 65 68 62 52 43 36 31 27 27 30 30 26 25 31 37 37 33 30 29 29 29 28 28 30 31 32 29 26 23 22 23 24 25 25 23 23 24 25 24 22 20 19 18 18 18 18 18 18 18 18
87 81 81 82 79 76 75 76 74 69 66 66 66 64 60 54 44 36 35 40 45 45 41 38 40 43 46 53 59 61 65 71 70 65 68 74 69 58 48 42 37 36 34 34 35 36 32 29 35 45 49 45 40 35 33 31 30 29 28 29 28 27 25 23 22 21 23 27 28 27 25 25 25 25 24 23 22 20 20 20 20 20 20 20 20
84 82 82 80 77 75 75 74 72 68 66 65 65 64 62 55 46 37 34 39 47 48 42 38 41 43 48 58 67 72 77 79 73 69 77 80 67 51 45 43 41 40 41 39 40 42 40 36 41 52 59 58 52 46 42 39 35 32 29 28 28 28 28 28 27 25 24 26 30 30 28 25 25 26 26 25 24 24 23 23 23 23 23 22 22
82 82 81 78 76 75 74 73 70 67 65 64 65 66 64 58 49 39 33 38 47 49 44 41 41 42 49 62 73 81 88 87 78 75 83 80 61 47 47 48 46 46 46 44 44 46 45 44 49 57 64 66 65 61 57 52 46 40 36 33 32 32 33 35 36 34 30 28 30 32 31 27 26 26 26 26 26 26 26 26 26 26 26 26 25
81 80 78 76 75 75 74 72 69 66 64 64 67 68 66 61 52 41 33 37 46 48 45 43 42 42 50 64 76 88 96 92 83 82 85 75 59 53 56 56 54 54 53 51 51 51 51 52 54 58 65 70 70 67 64 61 57 51 44 38 34 32 33 36 40 40 35 31 31 33 34 31 28 27 27 28 29 29 29 30 30 30 30 29 29
75 73 72 73 74 72 71 70 68 65 63 63 66 68 66 61 54 43 35 36 43 46 46 45 43 43 50 63 79 95 101 94 87 88 85 71 61 63 67 66 66 66 63 62 65 65 62 60 58 58 61 65 66 65 66 65 61 54 46 39 35 33 31 34 38 40 37 32 31 34 37 35 31 31 31 30 30 31 31 32 32 32 32 32 33
Wind_Speed
67 66 66 65 65 66 65 65 65 65 65 66 66 66 65 64 64 64 64 64 63 63 63 63 63 63 63 63 64 64 64 64 65 65 65 66 66 66 67 68 68 69 69 70 70 70 71 71 72 72 71 71 71 71 71 71 71 71 71 70 70 70 70 70 69 67 68 68 67 67 66 63 61 60 59 57 55 54 54 53 52 51 51 49 48
68 68 67 67 67 68 67 67 67 67 67 68 68 68 68 67 67 67 67 67 67 66 66 66 66 66 66 66 67 67 66 66 66 66 67 67 68 68 69 69 70 71 71 72 72 72 73 73 74 74 73 73 73 73 72 72 72 72 72 72 72 72 71 71 71 70 69 70 70 69 68 66 64 64 62 60 58 56 55 55 55 54 54 53 52
69 70 70 69 69 69 69 69 69 69 69 70 70 70 70 70 70 70 70 70 70 69 69 69 70 70 70 70 70 70 69 69 68 68 68 69 69 69 70 71 72 73 73 73 74 74 74 75 76 76 75 75 75 76 75 74 74 74 74 74 74 74 74 73 72 72 72 72 72 72 71 70 68 67 65 63 62 60 58 58 58 57 57 56 55
73 74 73 72 71 70 70 70 70 71 71 71 71 71 71 72 72 72 72 72 72 72 72 72 73 73 74 74 74 73 72 72 71 71 71 71 71 71 71 72 73 74 75 75 76 76 76 76 77 78 77 77 77 77 77 76 76 75 76 76 75 75 76 75 74 74 74 74 75 74 74 73 72 71 70 68 66 65 63 62 61 60 60 59 58
78 78 78 77 75 74 73 72 72 72 72 72 73 73 73 73 74 74 74 74 75 75 75 75 75 76 76 76 76 76 76 75 75 74 73 73 73 74 74 74 74 75 75 76 77 77 77 78 79 79 79 79 79 80 79 78 78 77 77 77 77 77 77 77 76 76 76 76 77 77 77 76 75 75 74 73 72 71 69 67 66 65 64 63 62
80 81 81 81 79 77 76 76 75 74 74 74 74 74 74 75 75 76 76 76 76 77 77 77 77 78 78 78 78 78 78 78 77 77 77 76 76 77 76 76 76 77 77 77 78 78 79 80 80 81 81 81 81 81 81 81 80 79 79 79 79 79 78 78 77 77 77 77 78 79 80 79 78 78 77 76 76 75 74 73 72 71 69 68 67
79 80 81 81 81 80 79 80 79 78 78 78 77 77 76 77 77 77 77 77 78 78 78 79 79 80 80 80 80 80 80 80 79 79 79 79 79 79 79 79 79 79 80 80 80 80 80 81 82 82 83 83 83 83 83 83 82 82 81 81 80 80 79 79 79 78 77 78 79 80 81 81 81 81 80 79 78 78 77 76 76 75 74 72 70
79 79 79 79 79 80 80 80 80 80 80 81 81 81 81 81 81 80 80 80 80 80 80 80 81 81 81 82 82 82 82 82 81 81 81 81 81 81 81 81 81 82 82 83 83 83 83 83 83 84 84 84 84 85 85 85 84 84 83 83 82 81 81 81 80 79 78 78 79 80 81 82 83 83 83 82 81 80 79 79 79 78 77 75 74
79 79 78 77 77 78 78 78 79 79 80 81 82 84 85 85 85 85 84 84 84 84 84 84 84 84 84 84 84 84 84 83 83 82 82 82 82 82 82 82 83 83 84 84 85 85 85 85 85 85 86 86 86 86 87 87 86 86 86 85 84 83 83 82 82 81 80 79 79 80 81 81 83 84 85 85 84 82 81 80 80 81 80 78 77
78 78 76 73 71 67 65 68 73 73 74 75 77 79 82 84 86 87 87 88 88 88 88 88 88 87 87 87 87 87 87 86 85 85 84 83 83 83 83 83 84 84 84 85 85 86 86 86 87 87 88 88 88 88 88 88 88 87 87 87 87 86 85 84 83 83 82 81 81 81 81 81 82 84 85 86 86 85 84 82 82 82 82 80 79
77 77 75 73 69 62 56 57 61 63 67 70 72 74 78 81 83 85 87 89 90 90 91 92 92 91 91 91 91 90 90 89 89 88 86 85 84 84 84 84 85 85 85 85 86 86 87 87 88 89 89 90 90 90 90 90 90 89 88 88 88 88 87 86 86 85 84 83 83 83 82 82 83 84 84 85 86 86 86 85 84 84 83 82 82
75 75 74 73 71 68 64 61 59 57 60 66 71 74 77 78 80 82 86 88 89 91 92 93 94 94 94 94 94 94 94 94 93 91 90 88 87 87 86 86 86 87 87 87 87 87 88 88 89 89 90 91 91 92 92 92 92 91 90 90 89 88 87 87 87 87 86 85 84 84 84 84 85 85 85 85 86 86 86 86 85 85 85 84 83
72 73 73 72 71 70 69 68 67 65 61 60 66 74 76 77 79 80 83 86 88 90 92 92 93 94 95 96 97 97 97 97 96 95 93 92 92 91 90 90 90 90 89 89 89 89 90 91 91 91 91 91 92 92 92 92 93 93 92 92 91 89 88 87 87 87 87 87 86 85 85 86 86 87 87 86 85 85 85 86 86 86 86 85 85
68 69 69 70 70 70 70 70 71 73 70 64 65 71 75 77 79 80 81 84 87 89 90 91 92 94 95 96 98 98 99 99 98 97 96 95 95 94 93 93 92 93 93 93 93 93 94 94 94 94 94 93 93 92 92 92 92 92 92 92 92 91 90 88 87 87 87 87 86 86 87 88 87 88 89 88 86 86 85 85 85 86 86 86 86
64 65 66 67 68 69 71 71 71 75 78 76 75 78 80 79 80 80 79 79 82 86 89 91 91 93 94 96 97 98 99 99 99 99 98 98 97 96 95 94 94 94 95 96 96 97 98 98 98 98 97 97 96 95 93 92 91 91 91 91 91 91 91 89 88 87 87 87 86 86 88 89 88 88 89 89 87 87 87 86 85 84 85 85 85
60 62 64 65 67 68 70 72 74 77 82 85 86 89 89 88 85 82 79 77 78 82 87 90 92 93 94 95 95 96 97 98 99 99 99 99 98 97 97 96 96 96 97 98 99 100 101 101 101 101 101 100 99 98 96 93 91 90 89 89 89 90 90 90 90 88 87 87 87 87 88 89 88 88 89 89 88 88 88 87 86 85 84 84 84
59 60 61 62 65 67 69 71 74 78 84 89 92 94 95 95 93 90 87 84 82 82 84 88 90 92 93 93 94 95 95 96 97 97 97 97 97 97 96 95 96 97 99 100 101 102 103 103 104 103 103 102 101 100 99 97 94 91 89 88 87 87 88 90 91 89 88 87 87 87 87 88 89 88 88 89 88 88 88 87 87 87 86 84 84
61 61 61 61 63 65 67 69 73 77 82 88 93 97 100 100 99 97 94 90 86 85 85 87 88 90 91 91 91 92 93 93 94 94 94 94 93 93 93 93 95 97 99 100 102 103 104 105 105 104 102 101 101 101 100 99 97 94 92 89 87 86 88 90 91 90 89 88 86 86 86 87 88 89 89 88 88 88 87 85 86 88 87 86 85
62 61 62 62 62 62 63 66 70 75 79 84 90 96 99 100 99 98 95 89 86 85 86 87 87 88 87 86 85 85 85 85 85 86 86 86 86 87 89 91 93 96 98 99 101 102 103 103 103 101 99 98 98 99 99 99 97 96 95 93 90 90 91 92 91 90 88 87 86 85 85 86 87 88 89 89 88 87 85 85 86 87 87 86 87
61 60 60 61 61 62 62 64 68 73 78 83 87 91 93 93 93 92 90 86 84 84 85 85 86 85 81 78 75 73 71 70 69 70 71 74 77 80 83 86 89 93 96 98 99 100 100 99 97 95 93 93 93 94 96 96 96 96 95 95 94 94 95 95 92 90 89 87 86 86 85 85 86 86 87 88 88 87 85 84 85 86 86 86 87
59 59 59 60 61 62 64 67 70 74 79 82 83 84 84 84 83 83 83 83 83 82 82 83 82 80 75 70 67 63 60 58 58 59 62 65 69 73 76 81 85 89 93 95 96 95 94 92 90 89 88 87 87 88 90 91 93 93 94 95 96 97 97 96 94 92 91 89 87 86 85 85 85 85 86 87 88 87 86 84 84 84 85 86 87
57 57 58 60 61 63 66 70 74 75 76 76 77 76 76 76 76 77 78 80 80 80 80 79 78 74 69 65 61 57 54 53 53 55 57 61 65 70 74 79 84 88 89 89 88 87 86 85 84 83 82 81 81 81 83 85 87 88 90 91 93 95 96 96 95 94 92 91 89 87 86 85 85 85 85 86 87 87 86 85 83 82 83 85 86
55 56 58 60 62 64 67 71 72 73 72 71 71 70 69 70 72 74 76 78 79 79 78 76 72 68 64 61 58 54 52 52 52 54 57 61 65 70 75 79 83 83 81 79 79 79 79 79 79 78 78 77 76 76 76 78 79 81 83 85 87 90 92 93 94 94 93 91 89 88 87 87 87 86 85 85 86 86 86 85 84 82 81 83 85
56 57 58 59 61 63 65 67 69 70 69 69 67 66 66 67 70 73 75 77 77 77 75 72 68 65 62 59 56 53 53 53 55 58 60 64 68 72 76 77 77 75 73 71 72 73 74 75 75 75 75 74 73 71 70 70 72 74 77 79 81 83 86 88 90 92 92 91 90 89 89 89 89 88 88 86 85 85 84 84 83 82 81 82 83
56 57 56 56 58 60 62 63 65 66 65 65 64 64 65 66 69 72 74 76 76 75 72 68 65 63 60 58 56 55 55 56 58 60 62 66 69 71 72 71 69 67 66 66 66 67 68 69 70 71 70 69 67 65 64 64 66 69 71 73 75 77 79 82 84 87 89 90 90 89 89 89 89 89 90 88 86 84 84 85 84 83 82 81 82
51 50 50 51 52 54 56 58 60 61 60 60 61 62 64 66 68 71 73 74 73 72 69 65 63 61 59 57 56 57 57 58 59 62 64 66 66 66 64 62 60 59 59 60 60 60 61 63 64 64 63 61 60 58 58 59 61 63 64 66 68 70 73 75 77 80 83 86 88 88 88 88 88 88 89 88 87 86 86 87 86 84 82 80 80
44 44 45 46 46 47 49 50 53 55 56 56 58 61 64 66 67 68 70 71 70 68 66 63 61 59 57 56 56 57 57 58 60 63 64 63 60 58 56 54 53 53 53 53 53 54 55 56 55 55 55 55 54 53 53 54 55 56 58 59 61 63 66 68 71 73 76 80 83 85 87 87 86 86 87 87 87 86 87 88 87 85 82 80 79
40 41 42 43 43 43 44 45 47 51 53 55 57 60 63 65 64 64 66 66 65 64 62 60 57 55 54 54 54 54 55 59 61 62 60 57 54 52 50 49 48 48 48 47 48 49 49 49 49 50 50 50 50 49 49 49 50 50 51 53 55 57 59 62 64 67 71 74 77 80 82 82 83 83 85 86 86 86 87 87 87 86 84 81 79
38 39 41 42 42 42 43 44 46 49 52 53 55 59 62 62 61 61 61 61 61 60 58 55 52 51 50 50 50 52 56 59 60 57 55 52 50 47 45 44 43 44 44 44 44 45 45 46 47 48 47 47 47 47 46 46 46 46 48 49 51 52 54 56 59 62 66 69 72 74 76 77 78 80 81 83 84 85 86 86 86 86 84 82 80
38 38 39 40 40 40 41 43 45 47 49 51 54 57 58 58 57 57 58 58 57 55 53 50 47 47 47 48 50 54 56 57 55 53 51 49 45 41 39 39 40 42 43 42 42 43 44 44 45 45 45 45 45 44 43 43 43 44 45 46 47 49 51 53 55 58 61 63 66 68 70 71 72 74 76 79 81 83 84 84 84 84 82 81 81
36 36 36 36 37 37 39 40 41 43 46 49 51 53 53 54 54 54 54 54 52 49 47 45 44 44 45 48 53 55 53 50 49 49 49 46 40 36 34 35 39 41 42 41 40 41 41 42 42 41 42 42 42 41 41 41 41 42 42 42 43 45 46 48 51 53 56 58 60 63 64 66 67 69 71 73 76 79 80 81 82 81 81 81 82
34 34 33 34 34 35 37 38 39 41 44 47 48 49 50 51 51 51 50 49 47 45 44 43 42 44 46 50 52 51 47 45 45 46 44 40 36 34 34 36 38 39 39 39 39 38 38 39 39 39 39 39 40 40 39 39 39 39 39 39 40 41 43 45 47 49 51 53 55 58 60 61 63 64 65 68 70 73 75 77 78 79 80 81 83
33 33 33 33 34 36 38 39 40 41 44 45 45 46 46 47 47 47 46 44 43 42 41 40 41 44 47 48 47 44 42 42 42 42 39 35 32 33 35 36 36 36 36 36 37 36 36 36 36 36 36 37 37 38 38 37 36 36 36 37 38 39 40 42 44 45 46 48 50 52 54 57 58 59 61 63 65 68 70 71 73 75 78 80 82
34 36 37 37 37 38 39 39 41 42 43 43 43 43 42 42 41 40 40 39 39 38 38 38 40 43 44 43 41 39 38 39 40 38 35 32 30 32 35 35 34 34 33 32 33 34 34 34 34 34 34 34 34 35 35 34 33 32 33 34 35 36 38 39 40 41 42 43 45 47 49 51 53 55 56 58 61 63 65 66 68 71 74 78 80
37 38 39 40 40 39 39 39 40 40 40 39 38 38 37 37 36 36 36 37 36 36 35 36 39 41 40 38 36 36 36 37 37 36 33 31 30 31 33 33 32 32 31 30 30 31 32 32 33 33 32 31 31 32 33 32 31 30 29 30 31 33 34 35 35 35 37 39 41 43 45 47 48 50 52 54 57 60 62 63 65 67 71 75 78
38 38 39 40 41 40 39 38 38 37 35 34 34 35 35 35 36 36 36 36 35 33 33 35 37 37 36 34 34 34 35 35 34 33 32 31 30 30 30 30 29 29 29 29 29 29 29 30 31 32 31 30 30 30 30 30 28 27 26 27 28 29 29 28 29 30 32 34 36 39 41 42 44 46 48 51 54 56 59 61 62 64 68 71 75
37 38 39 40 39 38 37 37 36 35 33 33 34 35 36 36 35 35 35 34 32 31 31 33 34 33 32 31 32 33 34 33 31 30 31 30 29 28 28 28 27 27 28 28 28 28 28 29 30 30 30 30 29 28 27 26 26 25 25 25 25 24 24 24 25 26 28 30 32 34 36 38 40 42 45 47 50 53 55 57 59 61 64 68 71
39 39 39 38 37 36 35 35 35 34 34 34 35 35 35 35 34 34 34 32 30 29 29 31 31 31 30 29 30 32 33 31 29 29 29 29 27 25 25 26 25 26 26 27 27 27 27 28 28 28 29 28 26 25 24 24 24 24 23 23 22 22 21 21 22 24 25 27 28 30 31 33 35 38 40 43 45 48 50 53 56 59 63 65 68
38 38 37 36 35 34 34 34 34 34 34 34 33 33 33 33 33 33 32 30 28 28 28 29 29 29 28 28 29 31 31 30 28 27 27 27 26 24 23 23 24 25 26 26 26 25 25 25 26 26 26 25 23 22 22 23 23 23 22 22 21 20 19 20 21 22 23 24 25 26 28 29 31 33 35 38 41 44 46 49 53 57 60 62 64
37 37 36 34 33 33 33 33 34 34 33 32 32 32 32 32 32 32 30 28 27 27 27 27 27 28 27 27 28 29 29 29 27 25 25 25 25 24 22 22 23 24 25 25 24 23 23 23 23 23 23 22 21 20 20 21 21 22 22 21 20 19 18 18 18 19 20 22 22 23 25 26 28 29 32 34 37 41 44 47 49 51 54 56 58
38 38 36 34 33 34 35 35 35 34 33 32 31 31 31 31 31 30 27 26 26 26 26 26 26 26 26 27 27 28 28 28 26 24 23 23 23 23 23 23 23 24 23 23 22 22 22 21 20 20 21 20 19 18 19 19 20 21 21 21 20 18 16 16 16 18 19 20 20 20 21 23 24 26 29 31 34 37 40 42 43 45 47 49 52
39 38 36 35 36 37 37 36 34 33 32 32 31 30 29 29 29 28 25 24 24 25 25 25 25 25 26 26 27 27 28 27 24 22 21 21 22 23 24 24 24 24 23 22 22 21 20 19 18 18 19 19 19 18 18 18 18 19 20 21 19 17 15 14 14 15 17 18 18 18 19 20 22 24 26 28 30 33 35 37 38 40 42 44 46
38 37 37 37 37 37 36 35 33 33 32 31 29 28 28 28 28 26 24 23 24 24 25 25 24 24 25 26 27 27 27 25 23 21 20 20 21 23 24 24 24 24 24 22 21 20 18 17 17 18 19 20 20 19 18 17 17 18 20 20 19 17 15 13 13 13 14 15 15 15 15 16 19 21 23 25 27 29 31 33 35 37 38 41 43
38 38 38 37 36 36 35 34 33 33 32 30 27 26 27 27 27 25 23 23 24 25 25 24 24 24 25 26 26 26 26 24 22 21 20 19 20 22 24 24 24 24 23 21 20 19 18 16 17 19 21 22 22 20 18 17 17 18 19 19 18 17 15 13 12 11 11 12 12 13 13 13 16 18 21 23 24 25 26 29 31 33 35 37 39
40 39 37 36 36 36 35 34 32 32 30 27 26 26 26 27 27 25 23 23 25 26 25 24 23 24 25 26 26 26 25 23 22 21 20 19 19 21 23 24 24 23 22 20 19 18 17 16 17 20 22 24 23 22 20 18 17 17 17 18 17 16 15 13 12 10 10 10 10 11 12 12 14 16 19 21 23 24 25 26 28 30 32 33 35
40 38 36 35 36 35 34 32 31 30 28 26 25 25 26 27 27 25 23 23 25 27 26 25 23 24 25 26 26 26 24 23 22 21 19 18 19 20 22 23 23 21 20 19 18 17 17 16 18 20 23 24 24 23 21 19 17 16 16 17 16 16 14 12 11 10 9 9 9 10 12 12 14 16 18 20 22 23 23 24 25 27 28 29 31
39 37 36 36 36 34 33 32 31 29 28 26 25 25 26 27 27 25 23 24 26 28 28 26 24 24 26 26 26 26 24 23 22 21 19 18 20 20 21 22 21 20 20 19 17 17 17 17 18 21 23 24 25 24 23 20 19 18 17 16 16 15 13 12 11 10 9 9 10 11 12 13 14 15 17 19 20 21 21 22 23 24 25 26 27
39 38 37 37 35 34 32 31 30 29 28 26 25 25 26 27 27 26 24 25 27 29 29 26 25 25 26 27 26 26 24 24 23 21 18 19 20 20 20 20 20 20 19 19 17 16 16 17 18 21 23 24 25 24 23 22 21 20 19 17 16 15 14 13 12 12 11 11 12 13 14 15 15 16 17 18 18 19 20 20 21 22 23 24 25
39 38 38 37 35 33 32 31 31 30 28 26 25 25 26 27 28 27 26 26 28 30 29 27 26 26 27 27 27 26 25 24 23 21 18 19 20 19 18 19 19 18 17 18 17 16 16 17 19 21 23 24 25 25 25 24 23 22 21 20 19 18 17 16 15 15 14 14 14 14 15 15 16 17 17 17 17 18 19 20 21 22 23 24 24
40 39 38 37 36 35 33 32 32 31 29 27 26 26 27 28 28 28 28 28 29 30 30 28 27 27 28 28 27 26 26 25 24 21 19 18 19 18 18 17 16 15 15 16 16 16 16 17 18 20 23 25 26 26 26 26 25 25 24 23 22 21 20 18 17 17 17 17 17 17 16 17 17 17 17 18 18 19 20 21 22 22 23 23 24
41 40 39 38 37 36 35 34 33 32 30 28 27 27 27 28 29 29 29 30 30 31 31 29 28 28 29 29 28 27 27 26 24 21 19 18 17 17 16 15 14 13 13 14 14 15 15 16 17 19 21 24 26 27 27 27 27 26 26 24 23 22 20 18 18 19 20 19 19 19 18 17 18 19 19 20 20 20 21 22 22 22 23 23 23
Wind_Direction
258 258 258 258 258 257 256 256 255 255 255 255 255 255 255 255 254 254 254 254 254 254 254 253 253 252 252 251 251 251 250 250 250 250 250 250 250 250 250 251 251 252 252 252 251 251 251 251 250 250 250 250 249 248 247 246 246 246 246 245 244 243 241 241 241 242 246 248 248 249 250 250 249 249 248 249 250 251 253 255 254 253 251 249 246
257 257 257 256 256 256 256 256 256 255 255 255 255 256 256 256 256 255 255 255 255 255 254 254 253 253 252 252 251 251 251 251 251 251 251 251 251 251 251 251 251 252 252 252 252 252 252 252 252 251 251 250 250 250 249 248 247 246 246 246 245 244 243 241 240 240 244 246 246 247 249 249 249 249 249 248 249 249 250 251 253 254 252 249 247
257 257 256 255 255 255 255 255 255 255 255 256 256 256 256 256 256 256 256 256 256 255 255 255 254 254 253 253 252 252 252 252 252 252 252 252 251 251 251 251 251 251 251 252 252 252 252 253 253 253 252 251 251 250 250 249 248 247 247 247 246 246 244 242 241 241 242 246 246 245 246 248 248 249 249 248 249 249 249 249 251 253 253 251 249
257 257 256 255 254 254 254 253 254 254 255 255 255 255 256 256 256 256 256 256 256 256 255 255 255 255 254 254 254 254 253 253 252 252 252 251 251 251 251 251 251 251 251 252 252 252 252 252 253 253 253 253 252 251 251 250 249 248 248 247 247 246 245 243 241 241 241 244 247 246 245 245 246 247 248 248 249 249 250 250 250 251 253 253 251
257 257 257 256 256 255 255 255 254 254 254 254 255 255 255 256 256 256 256 256 256 256 255 255 255 255 255 255 255 255 255 255 254 254 253 252 252 251 251 250 251 251 251 251 251 251 251 252 252 252 253 253 253 253 252 251 250 249 249 248 247 247 247 245 243 241 240 241 245 247 246 245 245 245 246 247 248 249 250 251 251 251 252 252 252
256 256 257 257 257 257 257 257 257 256 256 256 255 255 255 256 256 256 256 256 256 256 256 256 256 256 256 255 256 255 255 255 255 255 254 254 253 252 251 251 251 251 251 251 251 251 251 251 251 252 252 252 252 252 253 253 252 251 250 249 249 247 247 247 245 242 241 240 242 245 246 246 246 246 246 246 247 248 250 251 251 251 251 251 251
255 255 256 257 257 258 258 258 258 258 258 258 258 257 257 256 256 256 256 256 256 257 257 257 257 256 256 256 256 256 256 255 255 254 254 254 253 253 253 252 252 252 252 252 251 251 251 250 251 251 251 251 251 251 252 252 252 252 251 250 250 249 248 248 247 245 243 241 242 243 245 245 245 246 246 246 246 247 248 249 250 250 250 250 251
253 254 254 255 256 257 257 258 259 260 260 259 259 259 258 258 257 257 257 257 257 256 256 256 256 257 257 257 257 256 256 256 255 255 254 254 253 253 253 253 253 253 253 253 253 252 252 251 251 251 251 251 251 251 250 250 250 250 251 251 251 250 249 249 248 247 245 243 243 243 244 244 245 245 246 246 246 246 247 248 248 249 250 250 251
254 253 254 255 256 258 259 260 260 260 260 260 260 259 259 259 258 258 258 257 257 257 257 256 256 256 256 256 256 256 256 256 255 255 255 254 254 254 254 254 254 254 253 253 253 253 253 252 252 252 252 251 251 251 251 250 250 249 249 250 250 250 250 249 249 248 247 246 245 244 244 245 245 245 245 245 245 245 246 247 247 248 249 249 250
255 254 254 254 256 258 261 263 264 263 262 262 261 261 259 258 258 257 257 257 257 257 257 257 257 256 256 256 256 256 256 256 256 256 255 255 255 255 255 255 255 254 254 254 254 253 253 253 252 252 252 252 251 251 251 251 250 250 249 249 248 249 249 249 249 249 248 247 247 246 246 245 245 245 245 245 245 245 245 246 246 247 248 249 249
254 254 254 252 251 250 251 254 260 265 267 266 263 261 259 257 256 256 256 256 256 256 256 257 257 257 257 257 257 257 257 257 257 256 256 256 256 256 256 256 256 255 255 255 255 255 254 254 253 252 252 252 252 251 251 251 251 251 250 249 249 248 248 248 248 248 248 247 247 248 247 247 247 246 245 245 245 245 245 245 245 246 247 247 248
253 253 253 252 250 247 245 244 246 252 259 264 264 261 258 255 254 254 254 254 254 255 255 256 256 257 257 257 257 258 258 258 257 257 257 257 257 256 256 256 256 256 256 256 256 256 256 255 255 254 253 252 252 251 251 251 251 251 251 251 250 249 248 247 247 248 248 247 247 247 248 248 248 248 247 246 245 245 245 245 245 246 246 246 247
251 252 252 251 250 247 244 242 241 242 245 254 259 259 257 255 253 252 252 252 253 253 254 255 255 256 256 256 257 257 258 258 258 258 258 258 257 257 257 257 257 257 257 257 257 257 257 256 256 255 254 253 253 252 251 251 251 251 251 251 251 250 249 248 247 247 247 247 247 247 247 247 248 249 249 248 247 246 245 245 245 246 246 246 246
252 251 250 250 249 247 244 241 240 239 240 244 252 255 255 255 254 253 252 251 251 252 253 253 254 254 255 256 256 257 257 258 258 259 259 258 258 258 257 257 257 257 257 257 257 257 257 257 256 256 256 255 254 253 252 251 251 251 251 251 252 251 251 250 248 248 247 247 247 247 247 246 246 247 248 249 248 248 247 245 245 245 246 246 247
253 252 251 249 248 246 244 241 239 238 238 241 247 252 253 253 254 255 255 254 253 252 252 252 253 253 254 255 255 256 257 258 258 259 259 259 259 259 258 258 258 258 258 258 257 257 257 256 256 256 256 256 255 255 254 253 252 251 251 251 252 252 252 251 250 249 248 247 246 246 247 247 246 246 246 247 248 249 249 248 246 245 245 246 246
253 252 251 250 249 247 244 242 238 236 237 240 245 250 252 254 255 256 257 259 259 257 255 254 254 254 254 254 255 256 257 257 258 259 259 260 260 260 260 260 260 259 259 258 258 257 257 256 256 255 255 255 255 255 255 254 253 252 252 251 251 251 252 252 251 250 249 248 247 246 246 247 247 246 246 246 246 247 248 248 248 248 246 246 246
256 253 251 249 248 247 246 244 241 238 236 239 243 248 252 254 256 257 258 260 262 262 260 258 257 257 256 256 256 256 256 257 258 259 259 260 261 261 261 261 261 261 260 259 259 258 258 257 256 255 255 255 255 255 256 255 255 254 253 252 252 251 251 252 252 251 250 249 247 247 246 247 247 247 247 246 245 245 246 247 248 248 248 247 246
257 256 253 250 247 246 245 245 245 243 240 239 242 246 249 252 255 257 259 260 262 262 262 262 261 260 259 258 258 258 258 258 259 259 260 261 261 262 262 261 261 260 260 260 259 259 259 258 257 256 255 255 255 255 255 255 255 255 254 253 253 252 252 251 251 251 250 249 248 247 247 247 247 247 247 247 246 245 244 245 246 247 247 247 247
256 255 254 253 251 248 246 245 245 246 246 244 243 244 247 250 253 256 259 260 261 261 262 262 262 262 262 261 261 261 261 262 262 263 263 262 262 261 260 259 259 259 259 259 259 259 259 259 259 258 257 257 256 256 256 255 255 255 255 254 253 253 252 251 251 250 250 250 249 248 247 247 247 247 247 247 247 246 244 243 244 245 246 246 246
256 255 254 254 253 251 249 247 245 245 246 246 246 247 248 251 253 256 259 260 261 261 261 262 263 265 266 267 267 266 266 266 266 265 263 261 259 258 257 257 257 257 258 259 259 259 260 261 261 261 261 259 258 257 257 256 255 254 254 253 253 252 252 251 250 250 250 249 249 248 247 247 246 246 247 247 247 246 245 243 243 243 244 245 245
256 255 254 253 252 251 250 249 247 245 245 246 248 250 252 254 256 257 259 260 261 262 262 264 266 267 269 270 270 270 269 269 268 265 262 259 258 257 256 255 255 255 256 258 259 261 262 263 264 265 264 263 261 259 258 257 255 253 252 251 251 251 251 251 251 250 249 248 248 247 247 247 246 245 245 246 247 246 245 244 243 242 243 244 245
255 254 253 251 250 248 248 248 248 248 248 249 251 252 254 256 257 258 259 260 261 262 264 265 267 269 271 272 273 273 273 271 268 266 263 261 258 256 254 254 254 255 257 259 262 264 265 266 267 267 266 265 263 261 258 257 255 254 252 251 250 250 250 250 250 250 249 248 247 247 247 247 246 246 245 245 246 246 245 244 243 242 242 243 243
257 255 253 250 248 247 246 248 249 251 252 252 253 253 253 254 255 256 257 258 260 262 264 266 268 271 273 274 275 276 275 273 270 267 264 262 259 256 255 255 256 259 261 263 265 266 267 267 267 267 267 266 264 262 259 258 257 256 255 253 251 250 249 249 249 250 249 249 247 247 246 246 246 246 245 245 245 245 245 245 244 243 242 242 242
258 255 252 250 249 248 248 249 250 252 253 254 254 253 252 252 251 252 254 256 258 261 263 267 270 272 274 276 277 277 276 274 272 269 265 262 259 257 257 259 261 264 266 266 266 266 267 267 267 267 267 266 264 263 261 260 258 257 256 254 252 251 249 248 248 249 249 249 248 246 245 245 245 245 245 244 244 244 245 245 244 243 241 241 241
257 256 254 253 251 250 249 249 250 251 252 253 254 253 252 251 250 251 253 256 258 261 264 268 270 272 274 276 277 278 277 275 272 268 264 261 260 259 261 263 266 267 268 267 266 266 267 266 266 266 266 265 265 264 263 260 258 256 255 254 253 252 250 249 248 248 248 248 247 246 245 244 244 244 244 244 243 243 244 244 244 243 241 240 240
259 258 257 255 253 251 250 250 251 252 252 252 252 251 251 251 251 252 253 256 259 262 265 268 270 272 274 275 277 278 277 275 271 267 264 262 262 263 265 267 268 268 268 267 267 266 266 265 265 266 266 266 265 263 261 259 257 256 255 254 253 252 251 250 249 248 247 247 247 247 246 245 244 243 243 244 243 243 243 243 243 243 242 241 240
259 257 255 253 251 250 249 248 248 249 249 248 248 248 249 250 251 252 254 256 259 262 265 267 269 271 273 275 276 276 274 271 268 266 265 265 267 268 268 269 268 268 267 267 266 265 265 265 265 265 265 265 264 263 261 259 258 257 256 255 254 252 252 251 250 249 248 247 247 247 246 245 244 243 243 243 243 242 242 242 243 243 242 241 240
256 254 253 251 249 246 244 242 242 242 242 242 243 245 247 249 251 252 254 257 259 262 264 267 269 272 274 275 274 272 270 267 266 266 267 269 269 270 270 270 269 268 267 265 264 264 264 265 265 265 264 265 264 264 262 261 259 258 257 256 254 253 251 250 250 249 248 247 247 246 246 245 244 243 243 243 242 242 241 241 242 242 241 241 240
253 250 248 247 245 243 241 239 238 238 239 240 241 243 246 249 251 253 255 257 260 262 265 268 270 273 273 272 270 268 267 266 267 268 269 269 269 269 270 270 269 267 266 265 265 265 266 265 266 266 266 266 266 265 264 263 261 259 256 255 254 252 251 249 249 248 247 247 247 247 246 246 244 243 243 242 242 242 241 241 241 241 240 240 240
249 246 245 244 243 241 240 239 238 238 239 240 241 244 247 251 253 255 257 259 262 264 267 269 271 272 271 269 266 264 264 266 268 269 269 268 268 268 269 269 268 267 267 267 267 268 267 267 267 267 268 267 267 266 265 263 262 259 257 255 253 252 251 249 248 248 247 247 247 247 247 246 245 243 242 241 241 241 240 240 240 240 240 239 239
246 243 241 240 241 240 240 239 239 239 240 241 243 246 249 252 254 256 258 260 263 266 269 271 271 269 267 265 263 263 263 265 266 267 268 269 270 269 267 266 267 268 269 270 269 268 268 268 268 268 268 268 268 267 265 263 262 260 258 256 254 253 252 250 249 248 248 247 247 247 247 246 245 244 242 241 241 240 240 239 239 239 239 238 238
241 238 235 234 236 237 237 237 237 238 240 243 245 248 250 253 256 258 261 263 266 268 269 269 267 265 262 261 261 263 264 264 263 264 267 270 272 272 270 267 267 268 270 271 270 269 268 268 268 267 267 267 267 266 265 263 261 260 259 257 255 253 252 251 250 249 248 247 246 246 246 245 244 243 242 241 240 240 239 238 237 237 237 237 237
235 230 229 229 231 233 235 235 236 238 241 245 248 251 253 256 259 261 263 265 266 267 267 266 264 261 259 259 260 262 263 264 264 265 267 269 271 271 270 269 269 269 269 269 270 270 269 267 266 266 265 264 264 265 264 263 261 259 257 256 254 253 252 251 250 250 249 248 247 246 245 245 244 243 242 240 240 239 239 238 237 236 235 235 236
229 227 227 228 230 234 236 236 238 241 244 248 251 254 256 259 261 263 264 265 265 264 263 262 261 259 259 259 259 261 262 264 265 267 269 270 271 269 269 270 270 269 268 267 266 266 267 266 266 265 265 264 263 263 263 262 260 257 254 253 251 250 250 250 250 250 249 249 248 247 245 244 243 242 241 240 239 238 238 237 236 235 234 234 234
230 230 231 232 234 237 238 239 241 245 248 251 254 256 259 262 265 267 268 267 264 261 258 257 256 257 258 259 260 260 261 263 265 268 271 272 270 268 268 269 270 270 269 266 264 263 264 265 266 266 265 264 261 259 259 260 258 256 253 251 249 249 249 249 249 249 248 248 248 247 246 244 242 241 239 238 237 236 235 234 233 232 232 232 232
233 234 234 235 238 241 243 245 247 250 253 255 258 262 266 269 271 272 270 267 262 259 256 254 253 254 256 258 259 260 261 262 265 269 271 270 269 267 267 267 267 267 266 265 265 265 265 265 265 265 265 263 259 257 256 257 257 255 253 251 250 249 249 249 248 246 246 245 245 245 244 243 241 239 238 237 236 235 234 232 231 231 231 231 231
235 235 236 238 241 244 247 249 252 256 259 262 265 268 271 272 272 270 267 264 261 258 256 255 254 253 254 256 258 259 260 263 266 269 270 269 267 266 265 265 264 264 265 266 266 266 265 264 263 263 263 261 258 256 254 254 255 254 253 252 252 251 250 249 246 245 244 243 243 243 242 241 240 238 236 236 235 234 233 232 230 230 230 230 230
235 237 239 242 245 248 251 254 257 261 264 266 268 270 270 270 268 267 265 264 262 258 255 254 253 253 253 253 255 258 261 264 266 267 267 268 266 263 261 262 263 265 267 267 266 266 265 264 262 261 260 260 258 255 253 252 252 252 252 252 252 252 251 250 247 244 243 242 242 242 241 239 238 236 235 235 234 234 233 232 230 229 229 229 230
236 240 243 245 248 251 255 258 261 263 265 266 267 268 268 267 266 266 266 265 262 257 253 251 251 252 252 252 254 258 262 265 265 264 264 265 266 262 260 261 264 266 267 267 266 266 266 264 261 259 259 259 257 255 252 250 250 250 250 250 251 252 252 251 249 246 244 243 242 241 240 238 236 235 234 233 232 232 231 230 229 229 229 229 230
238 241 244 247 251 255 258 260 262 263 264 264 265 265 266 266 267 267 266 264 260 254 250 248 248 249 250 251 254 258 261 263 263 261 260 262 264 264 264 265 266 266 267 268 268 268 266 264 260 257 256 255 253 252 251 250 249 248 247 247 249 251 254 254 252 248 246 244 242 240 238 236 235 233 232 231 230 229 229 229 229 230 230 231 231
238 241 244 248 253 256 259 261 263 263 263 263 263 264 266 267 268 267 265 261 256 250 246 245 245 246 248 251 254 257 259 260 260 259 258 260 263 266 268 270 270 271 270 270 269 268 265 261 257 252 249 246 245 246 247 248 247 245 244 244 247 250 253 255 253 249 246 244 242 239 237 234 232 231 230 229 228 228 228 228 228 229 229 230 231
239 242 246 250 253 256 259 261 262 263 262 262 262 264 267 269 268 267 264 259 253 247 242 242 242 244 247 250 253 255 257 258 258 256 256 260 264 268 270 272 273 274 274 273 271 267 262 257 251 245 240 237 236 237 239 242 242 241 240 241 243 246 250 253 252 248 245 243 240 237 234 232 230 228 228 228 227 226 225 225 224 224 225 226 227
240 243 246 248 251 254 257 259 260 261 262 262 263 266 269 269 267 265 262 257 250 243 239 238 240 242 246 249 251 253 254 255 256 254 255 259 264 269 271 272 273 273 273 273 271 266 260 253 246 237 231 229 228 229 232 236 238 237 237 237 239 241 245 248 248 244 242 241 238 235 232 231 231 228 225 224 223 223 223 222 221 220 220 221 223
240 242 244 246 249 252 254 256 259 260 261 263 265 267 268 267 265 262 260 255 248 241 236 235 237 240 244 247 249 250 251 253 254 254 255 259 264 269 271 272 272 271 271 271 269 264 257 249 241 231 225 223 223 223 226 231 233 233 233 234 237 239 242 244 245 241 236 233 232 229 226 226 228 227 223 220 218 216 217 217 217 217 218 219 220
239 240 242 244 248 251 253 256 258 260 262 265 267 267 266 264 262 260 257 251 244 239 235 233 234 238 242 244 246 247 248 250 253 255 257 261 266 269 271 271 271 270 269 268 265 260 253 244 236 229 223 221 220 220 222 226 228 228 227 229 233 237 240 241 240 237 230 225 223 221 219 219 221 221 218 215 213 211 209 210 211 212 214 216 217
240 241 243 246 248 250 253 256 258 260 263 265 266 265 264 263 260 257 251 244 239 237 234 232 232 235 238 240 243 244 245 248 251 254 259 264 266 268 269 270 270 270 269 267 263 256 247 237 230 225 223 221 220 219 220 222 223 222 221 222 225 230 233 234 233 230 225 220 217 216 214 212 214 215 213 211 209 208 206 206 207 208 209 211 212
241 243 245 247 249 251 254 257 259 261 263 264 263 262 262 261 259 254 246 237 233 234 233 231 230 232 234 236 238 241 243 246 249 253 258 264 266 267 268 269 269 269 269 266 260 250 240 232 224 220 219 221 221 220 219 219 221 220 219 217 218 221 225 228 230 228 223 218 215 214 212 209 208 208 209 208 207 205 204 203 204 204 205 206 207
241 244 246 247 249 252 255 258 259 261 261 261 259 259 260 260 258 252 242 231 228 231 232 230 229 229 230 232 234 237 240 244 248 251 257 263 266 266 267 268 269 268 265 261 253 242 234 228 221 215 215 218 221 221 221 220 221 222 221 219 218 219 223 228 232 232 227 221 217 214 212 210 207 205 205 205 204 202 201 201 202 203 204 205 206
242 244 246 247 250 253 256 257 258 259 259 258 257 257 258 257 256 250 240 229 224 227 230 230 228 227 227 228 230 233 236 241 246 249 255 261 265 267 268 270 269 265 259 253 247 238 229 223 218 214 213 215 219 221 222 222 223 225 225 224 221 220 221 225 230 233 230 223 218 215 212 210 209 208 206 203 201 199 198 199 200 201 203 204 205
242 243 245 247 249 252 254 255 256 257 257 255 254 254 254 254 253 249 240 228 222 223 227 229 228 226 225 225 226 229 233 238 242 247 252 258 263 267 269 270 268 262 255 250 245 238 228 222 219 215 213 213 216 219 221 223 224 226 227 227 226 224 222 221 224 229 229 223 216 213 210 209 209 209 206 203 200 199 198 198 200 201 202 204 205
241 243 244 246 248 250 252 253 254 255 254 253 252 251 251 250 250 246 239 229 222 221 224 227 228 226 224 223 223 225 229 234 239 243 248 254 258 262 265 266 264 259 251 245 241 237 231 226 223 220 217 216 217 218 221 224 226 228 229 231 231 232 230 225 220 222 224 219 213 210 208 206 205 205 205 203 201 200 200 200 201 202 203 204 204